Location: Unspecified
(0.0000°N, 0.0000°E)
Time: 19:06:00
(UTC+00:00)

Vanguard 1 - Pass Details

Date: 27 November 2019
Orbit: 652 x 3832 km, 34.3° (Epoch: 09 December)

Event Time Altitude Azimuth Distance (km) Brightness Sun altitude
Rises 17:39:42 0° 280° (W) 3,009 13.7 1.8°
Reaches altitude 10° 17:42:03 10° 267° (W) 2,208 13.5 1.3°
Maximum altitude 17:46:18 28° 207° (SSW) 1,602 11.9 0.3°
Drops below altitude 10° 17:52:19 10° 150° (SSE) 3,185 12.6 -1.1°
Sets 17:56:31 0° 140° (SE) 4,668 13.3 -2.1°
